CAPE
0 0 0 0 0 0 0 0 0 0 0 0 0 0 0 0 0 0 0 0 0 0
0 0 0 0 0 0 0 0 0 0 0 0 0 0 0 0 0 0 0 0 0 0
0 0 0 0 0 0 0 0 0 0 0 0 0 0 0 0 0 0 0 0 0 0
0 0 0 0 0 0 0 0 0 0 0 0 0 0 0 0 0 0 0 0 0 0
0 0 0 0 0 0 0 0 0 0 0 0 0 0 0 0 0 0 0 0 0 0
3 7 0 0 0 0 0 0 0 0 0 0 0 0 0 0 0 0 0 0 0 0
9 26 10 0 0 0 0 0 0 0 0 0 0 0 0 0 0 0 0 0 0 0
19 23 8 0 0 0 0 0 0 0 0 0 0 0 0 0 0 0 0 0 0 0
10 6 0 0 0 0 0 0 0 0 0 0 0 0 0 0 0 0 0 0 0 0
0 0 1 2 0 0 0 0 0 0 0 0 0 0 0 0 0 0 0 0 0 0
2 1 0 1 1 1 0 0 0 0 0 0 0 0 0 0 0 0 3 5 0 0
3 2 1 0 0 0 0 0 0 1 1 0 0 0 0 0 0 3 4 5 1 0
1 1 2 6 2 0 0 0 0 0 5 9 4 1 0 0 0 1 1 7 1 0
7 7 8 9 15 17 8 4 8 12 17 22 17 18 0 0 0 0 0 1 0 0
CIN
0 0 0 0 0 0 0 0 0 0 0 0 0 0 0 0 0 0 0 0 0 0
0 0 0 0 0 0 0 0 0 0 0 0 0 0 0 0 0 0 0 0 0 0
0 0 0 0 0 0 0 0 0 0 0 0 0 0 0 0 0 0 0 0 0 0
0 0 0 0 0 0 0 0 0 0 0 0 0 0 0 0 0 0 0 0 0 0
0 0 0 0 0 0 -1 0 0 0 0 0 0 0 0 0 0 0 0 0 0 0
-1 -1 0 0 0 0 0 0 0 0 0 0 0 0 0 0 0 0 0 0 0 0
0 -1 -1 0 0 0 0 0 0 0 0 0 0 0 0 0 0 0 0 0 0 0
-1 -1 -1 0 0 0 0 0 0 0 0 0 0 0 0 0 0 0 0 0 0 0
-1 0 0 0 0 0 0 0 0 0 0 0 0 0 0 0 0 0 0 0 0 0
0 -1 -1 -1 0 0 0 0 0 0 0 0 0 0 0 0 0 0 -1 -1 0 0
-1 -1 -1 -1 -1 -1 0 0 0 0 -1 0 0 0 0 0 0 0 -1 -2 -1 0
-2 -2 -1 0 0 0 -1 0 -1 -1 0 0 0 0 0 0 0 -2 -2 -2 -2 0
-1 -2 -2 -2 -1 -1 -1 0 0 -1 -1 -2 -1 -1 0 0 0 -4 -4 -2 -2 0
-1 -1 -1 -2 -1 -1 -2 -2 -2 -2 -1 -2 -3 -2 -4 0 0 0 0 -3 0 0
Wind_Speed
11 12 13 14 13 14 14 13 15 16 15 16 17 18 18 19 20 21 21 24 25 26
12 13 15 14 13 12 12 12 14 15 15 15 17 18 18 20 21 22 23 24 26 27
12 13 14 13 14 13 11 12 13 15 16 15 17 19 20 21 22 23 24 25 27 28
13 15 16 17 14 13 13 12 14 15 16 17 18 19 20 21 22 23 24 26 27 28
14 15 15 14 13 12 12 12 13 14 14 16 18 19 20 21 22 23 25 26 28 29
15 14 14 12 12 12 12 12 14 14 16 17 18 19 20 21 23 23 25 26 28 30
15 13 11 13 12 11 10 11 13 15 16 17 18 19 20 21 23 24 25 26 28 30
11 10 12 13 12 12 12 13 14 16 17 19 19 18 21 22 24 25 26 27 29 30
10 12 12 12 13 11 11 13 15 15 16 16 17 17 20 22 25 26 27 29 30 31
10 12 13 13 13 13 13 14 15 15 16 17 19 18 19 21 23 26 28 30 31 33
11 11 13 13 13 13 14 15 17 18 17 19 21 19 20 21 23 26 27 29 31 34
11 13 13 14 16 15 15 15 17 18 19 20 22 21 21 21 24 25 29 29 30 32
13 15 16 16 16 15 15 16 18 20 20 21 22 22 21 22 26 27 30 31 30 31
16 16 16 16 15 14 14 16 19 20 20 22 24 25 24 25 26 28 31 32 32 35
Wind_Direction
333 331 327 332 328 332 326 336 339 341 343 343 342 342 341 344 346 345 343 339 338 333
336 329 325 329 327 340 342 342 343 345 343 342 341 340 341 343 339 340 337 338 336 333
335 336 333 329 325 331 336 339 339 338 336 342 337 337 335 335 339 336 336 336 335 334
329 328 325 319 319 320 328 331 331 335 332 334 332 334 333 335 339 337 334 337 335 335
323 325 326 322 315 315 324 329 332 335 333 332 331 334 339 340 342 341 338 337 336 334
320 320 319 318 312 314 320 328 326 333 330 332 335 336 340 341 342 342 340 339 337 335
310 316 326 319 327 338 341 338 333 334 334 333 332 335 340 344 343 340 340 339 337 335
328 328 320 323 331 331 334 327 327 325 326 327 331 339 341 339 337 337 336 336 335 334
336 325 328 331 326 335 338 329 329 332 336 339 338 337 335 334 333 333 333 334 334 334
339 325 321 325 323 327 327 329 329 335 334 331 328 330 330 331 331 329 329 330 331 331
332 328 325 329 328 330 327 325 327 329 329 327 327 329 329 329 327 326 327 327 328 328
332 326 329 328 326 329 329 330 329 330 330 329 327 328 329 331 328 326 326 327 328 328
329 325 325 331 331 332 330 330 331 331 330 328 326 327 326 328 327 324 325 326 328 330
322 329 335 336 338 338 337 333 330 327 329 329 328 328 327 326 324 324 325 325 327 328